Date String (YYYY-MM-DD hh:mm:ss) UTC,Instrument flags,absolute air pressure of the measurement (hPa),sample flow rate (lpm),inlet stack bypass flow (lpm),air temperature of the measurement (°C),ambient temperature measured by the external sensor (°C),aerosol sample conditioner tube jacket temperature (°C),OPC LED temperature (°C),internal box temperature (°C),relative humidity of the measurement (%),span deviation,mass concentration of particles derived from Lorenz-Mie calculation of OPC scattering (μg/m³),mass concentration of particles derived from Lorenz-Mie calculation of OPC scattering (μg/m³),mass concentration of particles derived from Lorenz-Mie calculation of OPC scattering (μg/m³)
DateTimeUTC,F1_M11,P_M11,Q1_M11,Q2_M11,T1_M11,T2_M11,T3_M11,T4_M11,T5_M11,U1_M11,ZSPAN_M11,X2_M11,X0_M11,X1_M11
2023-12-23 05:00:00,SystemResetWarning,0825.8,4.99,000.00,025.2,024.1,000.0,033.6,026.6,11.3,0000.0,0004.31,0011.65,0003.77
2023-12-23 05:01:00,SystemResetWarning,0825.8,4.99,000.00,025.2,024.1,000.0,033.6,026.6,11.3,0000.0,0004.23,0012.11,0003.71
2023-12-23 05:02:00,SystemResetWarning,0825.8,5.00,000.00,025.2,024.1,000.0,033.6,026.6,11.3,0000.0,0004.16,0011.52,0003.66
2023-12-23 05:03:00,SystemResetWarning,0825.8,5.01,000.00,025.2,024.1,000.0,033.6,026.6,11.3,0000.0,0004.06,0011.39,0003.59
2023-12-23 05:04:00,SystemResetWarning,0825.8,5.00,000.00,025.2,024.1,000.0,033.6,026.5,11.3,0000.0,0004.00,0011.34,0003.55
2023-12-23 05:05:00,SystemResetWarning,0825.8,5.00,000.00,025.2,024.0,000.0,033.6,026.5,11.3,0000.0,0003.97,0011.20,0003.50
2023-12-23 05:06:00,SystemResetWarning,0825.8,4.99,000.00,025.2,024.0,000.0,033.6,026.5,11.3,0000.0,0003.85,0010.65,0003.43
2023-12-23 05:07:00,SystemResetWarning,0825.8,4.99,000.00,025.2,024.0,000.0,033.6,026.5,11.3,0000.0,0003.71,0009.98,0003.31
2023-12-23 05:08:00,SystemResetWarning,0825.7,5.00,000.00,025.1,024.0,000.0,033.6,026.5,11.3,0000.0,0003.56,0009.34,0003.19
2023-12-23 05:09:00,SystemResetWarning,0825.8,5.00,000.00,025.1,024.0,000.0,033.5,026.5,11.3,0000.0,0003.43,0009.02,0003.06
2023-12-23 05:10:00,SystemResetWarning,0825.8,5.00,000.00,025.1,024.0,000.0,033.5,026.5,11.3,0000.0,0003.32,0007.82,0002.88
2023-12-23 05:11:00,SystemResetWarning,0825.8,5.00,000.00,025.1,024.0,000.0,033.5,026.5,11.3,0000.0,0003.23,0007.04,0002.75
2023-12-23 05:12:00,SystemResetWarning,0825.8,5.01,000.00,025.1,023.9,000.0,033.5,026.4,11.3,0000.0,0003.11,0005.81,0002.61
2023-12-23 05:13:00,SystemResetWarning,0825.7,4.99,000.00,025.1,023.9,000.0,033.5,026.3,11.3,0000.0,0002.91,0006.54,0002.49
2023-12-23 05:14:00,SystemResetWarning,0825.8,4.98,000.00,025.0,023.9,000.0,033.5,026.3,11.3,0000.0,0002.83,0006.49,0002.43
2023-12-23 05:15:00,SystemResetWarning,0825.8,5.02,000.00,025.0,023.9,000.0,033.5,026.4,11.3,0000.0,0002.63,0005.99,0002.26
2023-12-23 05:16:00,SystemResetWarning,0825.8,5.00,000.00,025.0,023.9,000.0,033.5,026.4,11.4,0000.0,0002.48,0005.34,0002.17
2023-12-23 05:17:00,SystemResetWarning,0825.8,4.99,000.00,025.0,023.9,000.0,033.5,026.4,11.4,0000.0,0002.30,0005.72,0002.02
2023-12-23 05:18:00,SystemResetWarning,0825.8,5.00,000.00,025.0,023.9,000.0,033.4,026.3,11.4,0000.0,0002.27,0006.40,0002.00
2023-12-23 05:19:00,SystemResetWarning,0825.8,5.00,000.00,025.0,023.8,000.0,033.4,026.3,11.4,0000.0,0002.19,0006.24,0001.95
2023-12-23 05:20:00,SystemResetWarning,0825.8,5.01,000.00,025.0,023.8,000.0,033.4,026.3,11.4,0000.0,0002.16,0006.13,0001.92
2023-12-23 05:21:00,SystemResetWarning,0825.8,5.01,000.00,025.0,023.8,000.0,033.4,026.3,11.5,0000.0,0002.17,0006.19,0001.92
2023-12-23 05:22:00,SystemResetWarning,0825.8,5.01,000.00,025.0,023.8,000.0,033.4,026.3,11.5,0000.0,0002.18,0006.19,0001.93
2023-12-23 05:23:00,SystemResetWarning,0825.7,5.00,000.00,025.0,023.8,000.0,033.4,026.3,11.5,0000.0,0002.17,0006.20,0001.92
2023-12-23 05:24:00,SystemResetWarning,0825.7,5.00,000.00,025.0,023.8,000.0,033.4,026.3,11.5,0000.0,0002.16,0005.26,0001.91
2023-12-23 05:25:00,SystemResetWarning,0825.7,5.00,000.00,024.9,023.8,000.0,033.4,026.3,11.5,0000.0,0002.17,0004.42,0001.91
2023-12-23 05:26:00,SystemResetWarning,0825.7,5.00,000.00,024.9,023.8,000.0,033.4,026.3,11.6,0000.0,0002.19,0004.25,0001.92
2023-12-23 05:27:00,SystemResetWarning,0825.7,5.00,000.00,024.9,023.8,000.0,033.4,026.2,11.6,0000.0,0002.15,0004.16,0001.88
2023-12-23 05:28:00,SystemResetWarning,0825.6,5.00,000.00,024.9,023.7,000.0,033.3,026.3,11.6,0000.0,0002.17,0003.70,0001.89
2023-12-23 05:29:00,SystemResetWarning,0825.7,5.00,000.00,024.9,023.7,000.0,033.3,026.3,11.6,0000.0,0002.17,0002.98,0001.88
2023-12-23 05:30:00,SystemResetWarning,0825.6,4.99,000.00,024.9,023.7,000.0,033.3,026.3,11.7,0000.0,0002.22,0003.14,0001.91
2023-12-23 05:31:00,SystemResetWarning,0825.6,5.00,000.00,024.9,023.7,000.0,033.3,026.2,11.7,0000.0,0002.26,0003.44,0001.93
2023-12-23 05:32:00,SystemResetWarning,0825.7,5.00,000.00,024.9,023.8,000.0,033.3,026.2,11.7,0000.0,0002.30,0003.68,0001.97
2023-12-23 05:33:00,SystemResetWarning,0825.6,5.00,000.00,024.9,023.8,000.0,033.3,026.2,11.8,0000.0,0002.42,0003.87,0002.04
2023-12-23 05:34:00,SystemResetWarning,0825.6,5.00,000.00,024.8,023.8,000.0,033.3,026.2,11.8,0000.0,0002.51,0004.01,0002.11
2023-12-23 05:35:00,SystemResetWarning,0825.6,5.00,000.00,024.8,023.8,000.0,033.3,026.2,11.8,0000.0,0002.62,0004.19,0002.18
2023-12-23 05:36:00,SystemResetWarning,0825.6,5.00,000.00,024.8,023.8,000.0,033.3,026.2,11.8,0000.0,0002.68,0004.28,0002.22
2023-12-23 05:37:00,SystemResetWarning,0825.6,5.00,000.00,024.8,023.8,000.0,033.3,026.2,11.8,0000.0,0002.74,0004.39,0002.26
2023-12-23 05:38:00,SystemResetWarning,0825.6,5.00,000.00,024.8,023.8,000.0,033.2,026.2,11.8,0000.0,0002.82,0004.61,0002.31
2023-12-23 05:39:00,SystemResetWarning,0825.5,5.00,000.00,024.8,023.7,000.0,033.2,026.2,11.8,0000.0,0002.88,0005.46,0002.36
2023-12-23 05:40:00,SystemResetWarning,0825.5,5.00,000.00,024.8,023.8,000.0,033.2,026.1,11.8,0000.0,0002.96,0007.08,0002.43
2023-12-23 05:41:00,SystemResetWarning,0825.5,5.00,000.00,024.8,023.8,000.0,033.2,026.2,11.8,0000.0,0003.00,0007.06,0002.46
2023-12-23 05:42:00,SystemResetWarning,0825.5,5.00,000.00,024.8,023.8,000.0,033.2,026.1,11.8,0000.0,0003.01,0006.85,0002.50
2023-12-23 05:43:00,SystemResetWarning,0825.5,4.99,000.00,024.8,023.8,000.0,033.2,026.1,11.9,0000.0,0003.05,0006.61,0002.54
2023-12-23 05:44:00,SystemResetWarning,0825.4,5.00,000.00,024.8,023.8,000.0,033.2,026.1,11.9,0000.0,0003.05,0006.59,0002.56
2023-12-23 05:45:00,SystemResetWarning,0825.4,5.00,000.00,024.8,023.8,000.0,033.2,026.1,11.9,0000.0,0003.09,0006.62,0002.58
2023-12-23 05:46:00,SystemResetWarning,0825.4,5.00,000.00,024.7,023.7,000.0,033.2,026.1,11.9,0000.0,0003.10,0006.64,0002.58
2023-12-23 05:47:00,SystemResetWarning,0825.5,5.00,000.00,024.7,023.7,000.0,033.2,026.1,11.9,0000.0,0003.13,0006.75,0002.62
2023-12-23 05:48:00,SystemResetWarning,0825.5,5.00,000.00,024.7,023.7,000.0,033.1,026.0,11.9,0000.0,0003.15,0006.96,0002.66
2023-12-23 05:49:00,SystemResetWarning,0825.4,5.00,000.00,024.7,023.7,000.0,033.1,026.0,11.9,0000.0,0003.18,0007.62,0002.71
2023-12-23 05:50:00,SystemResetWarning,0825.4,5.00,000.00,024.7,023.7,000.0,033.1,026.0,11.9,0000.0,0003.22,0007.38,0002.78
2023-12-23 05:51:00,SystemResetWarning,0825.4,5.00,000.00,024.7,023.7,000.0,033.1,025.9,11.9,0000.0,0003.27,0006.05,0002.85
2023-12-23 05:52:00,SystemResetWarning,0825.4,5.00,000.00,024.6,023.6,000.0,033.1,025.9,12.0,0000.0,0003.35,0006.28,0002.95
2023-12-23 05:53:00,SystemResetWarning,0825.4,5.00,000.00,024.6,023.6,000.0,033.1,025.7,12.0,0000.0,0003.39,0006.45,0003.02
2023-12-23 05:54:00,SystemResetWarning,0825.4,5.00,000.00,024.6,023.6,000.0,033.1,025.6,12.0,0000.0,0003.41,0006.50,0003.06
2023-12-23 05:55:00,SystemResetWarning,0825.4,5.00,000.00,024.5,023.6,000.0,033.1,025.6,12.1,0000.0,0003.43,0006.61,0003.09
2023-12-23 05:56:00,SystemResetWarning,0825.4,5.00,000.00,024.5,023.6,000.0,033.0,025.6,12.1,0000.0,0003.47,0007.38,0003.12
2023-12-23 05:57:00,SystemResetWarning,0825.4,5.00,000.00,024.5,023.6,000.0,033.0,025.6,12.1,0000.0,0003.51,0008.13,0003.16
2023-12-23 05:58:00,SystemResetWarning,0825.4,5.00,000.00,024.4,023.5,000.0,033.0,025.5,12.1,0000.0,0003.55,0008.20,0003.19
2023-12-23 05:59:00,SystemResetWarning,0825.3,5.00,000.00,024.4,023.5,000.0,033.0,025.5,12.1,0000.0,0003.58,0008.20,0003.22
